| time (UTC) | temp C | wind direction | speed KPH | gust KPH | rain 1hr cm | rain 24hr cm | rain mn cm | humidity % | barometer mb |
| 20260905130407 | 23 | 218 | 14.5 | 22.5 | 0.00 | 0.00 | 0.00 | ||
| 20260905130006 | 23 | 226 | 14.5 | 27.4 | 0.00 | 0.00 | 0.00 | ||
| 20260905125646 | 23 | 226 | 14.5 | 24.1 | 0.00 | 0.00 | 0.00 | ||
| 20260905125558 | 23 | 226 | 14.5 | 24.1 | 0.00 | 0.00 | 0.00 | ||
| 20260905125155 | 23 | 261 | 14.5 | 20.9 | 0.00 | 0.00 | 0.00 | ||
| 20260905124353 | 22 | 238 | 16.1 | 22.5 | 0.00 | 0.00 | 0.00 | ||
| 20260905123951 | 22 | 255 | 14.5 | 19.3 | 0.00 | 0.00 | 0.00 | ||
| 20260905123548 | 22 | 244 | 11.3 | 19.3 | 0.00 | 0.00 | 0.00 | ||
| 20260905123146 | 23 | 248 | 17.7 | 29.0 | 0.00 | 0.00 | 0.00 | ||
| 20260905122745 | 23 | 266 | 14.5 | 20.9 | 0.00 | 0.00 | 0.00 | ||
| 20260905122344 | 23 | 233 | 12.9 | 22.5 | 0.00 | 0.00 | 0.00 | ||
| 20260905121941 | 22 | 245 | 14.5 | 25.7 | 0.00 | 0.00 | 0.00 | ||
| 20260905121533 | 22 | 251 | 16.1 | 25.7 | 0.00 | 0.00 | 0.00 | ||
| 20260905121131 | 22 | 230 | 16.1 | 22.5 | 0.00 | 0.00 | 0.00 | ||
| 20260905120730 | 22 | 256 | 12.9 | 20.9 | 0.00 | 0.00 | 0.00 | ||
| 20260905120328 | 22 | 260 | 14.5 | 20.9 | 0.00 | 0.00 | 0.00 | ||
| 20260905115926 | 22 | 227 | 14.5 | 29.0 | 0.00 | 0.00 | 0.00 | ||
| 20260905115525 | 22 | 227 | 16.1 | 25.7 | 0.00 | 0.00 | 0.00 | ||
| 20260905115122 | 22 | 238 | 9.7 | 16.1 | 0.00 | 0.00 | 0.00 | ||
| 20260905114721 | 22 | 241 | 16.1 | 32.2 | 0.00 | 0.00 | 0.00 | ||
| 20260905114319 | 22 | 216 | 11.3 | 19.3 | 0.00 | 0.00 | 0.00 | ||
| 20260905113917 | 22 | 255 | 12.9 | 24.1 | 0.00 | 0.00 | 0.00 | ||
| 20260905113509 | 22 | 213 | 16.1 | 30.6 | 0.00 | 0.00 | 0.00 | ||
| 20260905113107 | 21 | 245 | 16.1 | 22.5 | 0.00 | 0.00 | 0.00 | ||
| 20260905112705 | 21 | 249 | 14.5 | 24.1 | 0.00 | 0.00 | 0.00 | ||
| 20260905112306 | 21 | 245 | 14.5 | 20.9 | 0.00 | 0.00 | 0.00 | ||
| 20260905111902 | 22 | 219 | 11.3 | 25.7 | 0.00 | 0.00 | 0.00 | ||
| 20260905111501 | 21 | 245 | 12.9 | 16.1 | 0.00 | 0.00 | 0.00 | ||
| 20260905111058 | 21 | 241 | 14.5 | 27.4 | 0.00 | 0.00 | 0.00 | ||
| 20260905110657 | 21 | 243 | 12.9 | 19.3 | 0.00 | 0.00 | 0.00 | ||
| 20260905110256 | 22 | 223 | 11.3 | 20.9 | 0.00 | 0.00 | 0.00 | ||
| 20260905105855 | 21 | 219 | 12.9 | 27.4 | 0.00 | 0.00 | 0.00 | ||
| 20260905105445 | 21 | 212 | 14.5 | 22.5 | 0.00 | 0.00 | 0.00 | ||
| 20260905105044 | 21 | 226 | 16.1 | 29.0 | 0.00 | 0.00 | 0.00 | ||
| 20260905104643 | 21 | 246 | 19.3 | 30.6 | 0.00 | 0.00 | 0.00 | ||
| 20260905104242 | 21 | 248 | 16.1 | 19.3 | 0.00 | 0.00 | 0.00 | ||
| 20260905103840 | 21 | 237 | 12.9 | 27.4 | 0.00 | 0.00 | 0.00 | ||
| 20260905103438 | 21 | 246 | 17.7 | 27.4 | 0.00 | 0.00 | 0.00 | ||
| 20260905103036 | 21 | 228 | 12.9 | 16.1 | 0.00 | 0.00 | 0.00 | ||
| 20260905102635 | 21 | 225 | 16.1 | 22.5 | 0.00 | 0.00 | 0.00 | ||
| 20260905102234 | 21 | 249 | 17.7 | 25.7 | 0.00 | 0.00 | 0.00 | ||
| 20260905101831 | 20 | 245 | 19.3 | 29.0 | 0.00 | 0.00 | 0.00 | ||
| 20260905101423 | 21 | 239 | 20.9 | 30.6 | 0.00 | 0.00 | 0.00 | ||
| 20260905101021 | 20 | 220 | 19.3 | 25.7 | 0.00 | 0.00 | 0.00 | ||
| 20260905100620 | 20 | 240 | 16.1 | 22.5 | 0.00 | 0.00 | 0.00 | ||
| 20260905100218 | 21 | 258 | 16.1 | 22.5 | 0.00 | 0.00 | 0.00 | ||
| 20260905095816 | 21 | 219 | 17.7 | 32.2 | 0.00 | 0.00 | 0.00 | ||
| 20260905095415 | 20 | 254 | 19.3 | 27.4 | 0.00 | 0.00 | 0.00 | ||
| 20260905095013 | 20 | 245 | 9.7 | 14.5 | 0.00 | 0.00 | 0.00 | ||
| 20260905094611 | 20 | 230 | 16.1 | 25.7 | 0.00 | 0.00 | 0.00 | ||
| 20260905094210 | 20 | 230 | 17.7 | 27.4 | 0.00 | 0.00 | 0.00 | ||
| 20260905093808 | 20 | 234 | 17.7 | 32.2 | 0.00 | 0.00 | 0.00 | ||
| 20260905093400 | 19 | 254 | 17.7 | 20.9 | 0.00 | 0.00 | 0.00 | ||
| 20260905092958 | 20 | 235 | 17.7 | 27.4 | 0.00 | 0.00 | 0.00 | ||
| 20260905092556 | 20 | 227 | 14.5 | 20.9 | 0.00 | 0.00 | 0.00 | ||
| 20260905092155 | 20 | 225 | 17.7 | 24.1 | 0.00 | 0.00 | 0.00 | ||
| 20260905091754 | 20 | 238 | 12.9 | 24.1 | 0.00 | 0.00 | 0.00 | ||
| 20260905091353 | 20 | 234 | 9.7 | 16.1 | 0.00 | 0.00 | 0.00 | ||
| 20260905090950 | 20 | 242 | 12.9 | 20.9 | 0.00 | 0.00 | 0.00 | ||
| 20260905090549 | 20 | 218 | 17.7 | 30.6 | 0.00 | 0.00 | 0.00 | ||
| 20260905090148 | 20 | 229 | 14.5 | 24.1 | 0.00 | 0.00 | 0.00 | ||
| 20260905085746 | 19 | 225 | 11.3 | 17.7 | 0.00 | 0.00 | 0.00 | ||
| 20260905085337 | 19 | 231 | 17.7 | 35.4 | 0.00 | 0.00 | 0.00 | ||
| 20260905084935 | 19 | 240 | 14.5 | 22.5 | 0.00 | 0.00 | 0.00 | ||
| 20260905084534 | 19 | 249 | 14.5 | 22.5 | 0.00 | 0.00 | 0.00 | ||
| 20260905084133 | 19 | 244 | 11.3 | 20.9 | 0.00 | 0.00 | 0.00 | ||
| 20260905083730 | 19 | 223 | 9.7 | 19.3 | 0.00 | 0.00 | 0.00 | ||
| 20260905083329 | 18 | 211 | 9.7 | 17.7 | 0.00 | 0.00 | 0.00 | ||
| 20260905082927 | 18 | 235 | 11.3 | 17.7 | 0.00 | 0.00 | 0.00 | ||
| 20260905082526 | 18 | 228 | 8.0 | 14.5 | 0.00 | 0.00 | 0.00 | ||
| 20260905082125 | 19 | 209 | 8.0 | 14.5 | 0.00 | 0.00 | 0.00 | ||
| 20260905081722 | 19 | 216 | 6.4 | 12.9 | 0.00 | 0.00 | 0.00 | ||
| 20260905081314 | 18 | 205 | 8.0 | 16.1 | 0.00 | 0.00 | 0.00 | ||
| 20260905080912 | 18 | 215 | 9.7 | 16.1 | 0.00 | 0.00 | 0.00 | ||
| 20260905080511 | 18 | 208 | 9.7 | 14.5 | 0.00 | 0.00 | 0.00 | ||
| 20260905080109 | 18 | 218 | 8.0 | 16.1 | 0.00 | 0.00 | 0.00 | ||
| 20260905075707 | 18 | 216 | 9.7 | 14.5 | 0.00 | 0.00 | 0.00 | ||
| 20260905075306 | 18 | 220 | 9.7 | 14.5 | 0.00 | 0.00 | 0.00 | ||
| 20260905074904 | 18 | 241 | 9.7 | 14.5 | 0.00 | 0.00 | 0.00 | ||
| 20260905074502 | 18 | 249 | 6.4 | 11.3 | 0.00 | 0.00 | 0.00 | ||
| 20260905074101 | 17 | 254 | 8.0 | 14.5 | 0.00 | 0.00 | 0.00 | ||
| 20260905073659 | 17 | 255 | 11.3 | 16.1 | 0.00 | 0.00 | 0.00 | ||
| 20260905073251 | 17 | 252 | 9.7 | 19.3 | 0.00 | 0.00 | 0.00 | ||
| 20260905072848 | 18 | 223 | 4.8 | 9.7 | 0.00 | 0.00 | 0.00 | ||
| 20260905072447 | 18 | 207 | 6.4 | 12.9 | 0.00 | 0.00 | 0.00 | ||
| 20260905072046 | 18 | 200 | 9.7 | 16.1 | 0.00 | 0.00 | 0.00 | ||
| 20260905071644 | 19 | 199 | 4.8 | 6.4 | 0.00 | 0.00 | 0.00 | ||
| 20260905071243 | 18 | 192 | 6.4 | 11.3 | 0.00 | 0.00 | 0.00 | ||
| 20260905070840 | 19 | 225 | 3.2 | 6.4 | 0.00 | 0.00 | 0.00 | ||
| 20260905070440 | 19 | 225 | 4.8 | 9.7 | 0.00 | 0.00 | 0.00 | ||
| 20260905070038 | 18 | 225 | 4.8 | 11.3 | 0.00 | 0.00 | 0.00 | ||
| 20260905065636 | 18 | 248 | 4.8 | 8.0 | 0.00 | 0.00 | 0.00 | ||
| 20260905065227 | 16 | 270 | 6.4 | 8.0 | 0.00 | 0.00 | 0.00 | ||
| 20260905064825 | 16 | 270 | 8.0 | 11.3 | 0.00 | 0.00 | 0.00 | ||
| 20260905064424 | 16 | 247 | 6.4 | 8.0 | 0.00 | 0.00 | 0.00 | ||
| 20260905064023 | 17 | 244 | 4.8 | 12.9 | 0.00 | 0.00 | 0.00 | ||
| 20260905063620 | 17 | 250 | 8.0 | 9.7 | 0.00 | 0.00 | 0.00 | ||
| 20260905063219 | 16 | 252 | 6.4 | 9.7 | 0.00 | 0.00 | 0.00 | ||
| 20260905062818 | 16 | 262 | 6.4 | 9.7 | 0.00 | 0.00 | 0.00 | ||
| 20260905062417 | 17 | 268 | 8.0 | 11.3 | 0.00 | 0.00 | 0.00 | ||
| 20260905062014 | 16 | 270 | 6.4 | 9.7 | 0.00 | 0.00 | 0.00 | ||
| 20260905061612 | 16 | 251 | 6.4 | 9.7 | 0.00 | 0.00 | 0.00 | ||
| 20260905060802 | 16 | 247 | 8.0 | 12.9 | 0.00 | 0.00 | 0.00 | ||
| 20260905060402 | 16 | 239 | 14.5 | 22.5 | 0.00 | 0.00 | 0.00 | ||
| 20260905055959 | 15 | 256 | 9.7 | 16.1 | 0.00 | 0.00 | 0.00 | ||
| 20260905055557 | 15 | 257 | 9.7 | 14.5 | 0.00 | 0.00 | 0.00 | ||
| 20260905055156 | 15 | 265 | 11.3 | 16.1 | 0.00 | 0.00 | 0.00 | ||
| 20260905054754 | 16 | 246 | 9.7 | 17.7 | 0.00 | 0.00 | 0.00 | ||
| 20260905054352 | 17 | 243 | 8.0 | 12.9 | 0.00 | 0.00 | 0.00 | ||
| 20260905053951 | 16 | 259 | 11.3 | 16.1 | 0.00 | 0.00 | 0.00 | ||
| 20260905053549 | 16 | 264 | 11.3 | 14.5 | 0.00 | 0.00 | 0.00 | ||
| 20260905053141 | 16 | 267 | 9.7 | 14.5 | 0.00 | 0.00 | 0.00 | ||
| 20260905052738 | 16 | 266 | 8.0 | 14.5 | 0.00 | 0.00 | 0.00 | ||
| 20260905052337 | 17 | 261 | 9.7 | 17.7 | 0.00 | 0.00 | 0.00 | ||
| 20260905051936 | 19 | 250 | 8.0 | 12.9 | 0.00 | 0.00 | 0.00 | ||
| 20260905051535 | 18 | 253 | 9.7 | 12.9 | 0.00 | 0.00 | 0.00 | ||
| 20260905051132 | 18 | 249 | 9.7 | 14.5 | 0.00 | 0.00 | 0.00 | ||
| 20260905050731 | 18 | 207 | 4.8 | 9.7 | 0.00 | 0.00 | 0.00 | ||
| 20260905050330 | 17 | 202 | 4.8 | 6.4 | 0.00 | 0.00 | 0.00 | ||
| 20260905045929 | 17 | 202 | 4.8 | 8.0 | 0.00 | 0.00 | 0.00 | ||
| 20260905045527 | 17 | 202 | 3.2 | 6.4 | 0.00 | 0.00 | 0.00 | ||
| 20260905044715 | 16 | 135 | 1.6 | 4.8 | 0.00 | 0.00 | 0.00 | ||
| 20260905044314 | 16 | 225 | 1.6 | 4.8 | 0.00 | 0.00 | 0.00 | ||
| 20260905043913 | 17 | 225 | 4.8 | 8.0 | 0.00 | 0.00 | 0.00 | ||
| 20260905043509 | 18 | 209 | 4.8 | 6.4 | 0.00 | 0.00 | 0.00 | ||
| 20260905043109 | 17 | 202 | 0.0 | 1.6 | 0.00 | 0.00 | 0.00 | ||
| 20260905042706 | 17 | 202 | 0.0 | 0.0 | 0.00 | 0.00 | 0.00 | ||
| 20260905042307 | 18 | 202 | 0.0 | 1.6 | 0.00 | 0.00 | 0.00 | ||
| 20260905041903 | 18 | 202 | 0.0 | 3.2 | 0.00 | 0.00 | 0.00 | ||
| 20260905041501 | 20 | 158 | 3.2 | 4.8 | 0.00 | 0.00 | 0.00 | ||
| 20260905041053 | 17 | 135 | 0.0 | 1.6 | 0.00 | 0.00 | 0.00 | ||
| 20260905040651 | 17 | 135 | 0.0 | 3.2 | 0.00 | 0.00 | 0.00 | ||
| 20260905040249 | 18 | 162 | 3.2 | 4.8 | 0.00 | 0.00 | 0.00 | ||
| 20260905035848 | 17 | 180 | 0.0 | 0.0 | 0.00 | 0.00 | 0.00 | ||
| 20260905035446 | 17 | 180 | 0.0 | 1.6 | 0.00 | 0.00 | 0.00 | ||
| 20260905035045 | 17 | 193 | 3.2 | 4.8 | 0.00 | 0.00 | 0.00 | ||
| 20260905034643 | 18 | 212 | 4.8 | 6.4 | 0.00 | 0.00 | 0.00 | ||
| 20260905034241 | 20 | 202 | 4.8 | 9.7 | 0.00 | 0.00 | 0.00 | ||
| 20260905033840 | 20 | 199 | 3.2 | 4.8 | 0.00 | 0.00 | 0.00 | ||
| 20260905033438 | 20 | 180 | 3.2 | 6.4 | 0.00 | 0.00 | 0.00 | ||
| 20260905033030 | 19 | 180 | 1.6 | 3.2 | 0.00 | 0.00 | 0.00 | ||
| 20260905032627 | 20 | 180 | 1.6 | 3.2 | 0.00 | 0.00 | 0.00 | ||
| 20260905032226 | 20 | 180 | 1.6 | 3.2 | 0.00 | 0.00 | 0.00 | ||
| 20260905031825 | 20 | 180 | 3.2 | 4.8 | 0.00 | 0.00 | 0.00 | ||
| 20260905031424 | 19 | 135 | 1.6 | 4.8 | 0.00 | 0.00 | 0.00 | ||
| 20260905031021 | 18 | 135 | 0.0 | 3.2 | 0.00 | 0.00 | 0.00 | ||
| 20260905030620 | 18 | 135 | 0.0 | 1.6 | 0.00 | 0.00 | 0.00 | ||
| 20260905030219 | 20 | 146 | 3.2 | 4.8 | 0.00 | 0.00 | 0.00 | ||
| 20260905025818 | 20 | 180 | 1.6 | 3.2 | 0.00 | 0.00 | 0.00 | ||
| 20260905025414 | 19 | 180 | 0.0 | 1.6 | 0.00 | 0.00 | 0.00 | ||
| 20260905025006 | 19 | 180 | 0.0 | 1.6 | 0.00 | 0.00 | 0.00 | ||
| 20260905024605 | 19 | 180 | 0.0 | 3.2 | 0.00 | 0.00 | 0.00 | ||
| 20260905024204 | 20 | 180 | 0.0 | 0.0 | 0.00 | 0.00 | 0.00 | ||
| 20260905023803 | 20 | 180 | 1.6 | 3.2 | 0.00 | 0.00 | 0.00 | ||
| 20260905023400 | 20 | 180 | 1.6 | 3.2 | 0.00 | 0.00 | 0.00 | ||
| 20260905022959 | 20 | 180 | 1.6 | 3.2 | 0.00 | 0.00 | 0.00 | ||
| 20260905022557 | 20 | 214 | 3.2 | 6.4 | 0.00 | 0.00 | 0.00 | ||
| 20260905022156 | 20 | 315 | 0.0 | 0.0 | 0.00 | 0.00 | 0.00 | ||
| 20260905021754 | 20 | 315 | 3.2 | 6.4 | 0.00 | 0.00 | 0.00 | ||
| 20260905021352 | 20 | 312 | 3.2 | 9.7 | 0.00 | 0.00 | 0.00 | ||
| 20260905020944 | 20 | 21 | 1.6 | 3.2 | 0.00 | 0.00 | 0.00 | ||
| 20260905020542 | 19 | 21 | 0.0 | 3.2 | 0.00 | 0.00 | 0.00 | ||
| 20260905020139 | 20 | 21 | 0.0 | 3.2 | 0.00 | 0.00 | 0.00 | ||
| 20260905015738 | 20 | 21 | 1.6 | 3.2 | 0.00 | 0.00 | 0.00 | ||
| 20260905015336 | 20 | 20 | 1.6 | 3.2 | 0.00 | 0.00 | 0.00 | ||
| 20260905014936 | 20 | 21 | 0.0 | 0.0 | 0.00 | 0.00 | 0.00 | ||
| 20260905014533 | 20 | 21 | 0.0 | 1.6 | 0.00 | 0.00 | 0.00 | ||
| 20260905014132 | 19 | 21 | 1.6 | 4.8 | 0.00 | 0.00 | 0.00 | ||
| 20260905013731 | 20 | 21 | 1.6 | 4.8 | 0.00 | 0.00 | 0.00 | ||
| 20260905013329 | 19 | 21 | 3.2 | 4.8 | 0.00 | 0.00 | 0.00 | ||
| 20260905012921 | 20 | 21 | 3.2 | 6.4 | 0.00 | 0.00 | 0.00 | ||
| 20260905012518 | 21 | 21 | 3.2 | 4.8 | 0.00 | 0.00 | 0.00 | ||
| 20260905012117 | 20 | 21 | 0.0 | 1.6 | 0.00 | 0.00 | 0.00 | ||
| 20260905011716 | 20 | 2 | 1.6 | 3.2 | 0.00 | 0.00 | 0.00 | ||
| 20260905011314 | 20 | 0 | 0.0 | 3.2 | 0.00 | 0.00 | 0.00 | ||
| 20260905010912 | 21 | 0 | 0.0 | 1.6 | 0.00 | 0.00 | 0.00 | ||
| 20260905010510 | 20 | 0 | 0.0 | 3.2 | 0.00 | 0.00 | 0.00 | ||
| 20260905010109 | 20 | 0 | 0.0 | 1.6 | 0.00 | 0.00 | 0.00 | ||
| 20260905005708 | 20 | 0 | 0.0 | 3.2 | 0.00 | 0.00 | 0.00 | ||
| 20260905005306 | 20 | 340 | 4.8 | 6.4 | 0.00 | 0.00 | 0.00 | ||
| 20260905004857 | 20 | 338 | 0.0 | 3.2 | 0.00 | 0.00 | 0.00 | ||
| 20260905004455 | 20 | 338 | 1.6 | 3.2 | 0.00 | 0.00 | 0.00 | ||
| 20260905004054 | 20 | 338 | 1.6 | 3.2 | 0.00 | 0.00 | 0.00 | ||
| 20260905003652 | 20 | 356 | 1.6 | 4.8 | 0.00 | 0.00 | 0.00 | ||
| 20260905003250 | 21 | 0 | 1.6 | 4.8 | 0.00 | 0.00 | 0.00 | ||
| 20260905002849 | 20 | 338 | 1.6 | 3.2 | 0.00 | 0.00 | 0.00 | ||
| 20260905002448 | 20 | 338 | 3.2 | 6.4 | 0.00 | 0.00 | 0.00 | ||
| 20260905002047 | 20 | 344 | 1.6 | 4.8 | 0.00 | 0.00 | 0.00 | ||
| 20260905001644 | 20 | 353 | 3.2 | 6.4 | 0.00 | 0.00 | 0.00 | ||
| 20260905001243 | 20 | 338 | 1.6 | 3.2 | 0.00 | 0.00 | 0.00 | ||
| 20260905000835 | 20 | 317 | 6.4 | 11.3 | 0.00 | 0.00 | 0.00 | ||
| 20260905000433 | 20 | 335 | 6.4 | 8.0 | 0.00 | 0.00 | 0.00 | ||
| 20260905000031 | 21 | 313 | 6.4 | 12.9 | 0.00 | 0.00 | 0.00 | ||
| 20260904235630 | 20 | 341 | 4.8 | 8.0 | 0.00 | 0.00 | 0.00 | ||
| 20260904235228 | 20 | 352 | 1.6 | 8.0 | 0.00 | 0.00 | 0.00 | ||
| 20260904234827 | 20 | 338 | 4.8 | 11.3 | 0.00 | 0.00 | 0.00 | ||
| 20260904234424 | 21 | 301 | 3.2 | 11.3 | 0.00 | 0.00 | 0.00 | ||
| 20260904234023 | 21 | 329 | 8.0 | 14.5 | 0.00 | 0.00 | 0.00 | ||
| 20260904233622 | 20 | 324 | 8.0 | 14.5 | 0.00 | 0.00 | 0.00 | ||
| 20260904233220 | 21 | 320 | 6.4 | 12.9 | 0.00 | 0.00 | 0.00 | ||
| 20260904232811 | 21 | 323 | 6.4 | 14.5 | 0.00 | 0.00 | 0.00 | ||
| 20260904232409 | 21 | 305 | 6.4 | 12.9 | 0.00 | 0.00 | 0.00 | ||
| 20260904232008 | 20 | 316 | 8.0 | 16.1 | 0.00 | 0.00 | 0.00 | ||
| 20260904231607 | 21 | 336 | 11.3 | 16.1 | 0.00 | 0.00 | 0.00 | ||
| 20260904231205 | 21 | 318 | 9.7 | 17.7 | 0.00 | 0.00 | 0.00 | ||
| 20260904230803 | 21 | 318 | 11.3 | 20.9 | 0.00 | 0.00 | 0.00 | ||
| 20260904230401 | 21 | 307 | 11.3 | 19.3 | 0.00 | 0.00 | 0.00 | ||
| 20260904230000 | 21 | 315 | 9.7 | 22.5 | 0.00 | 0.00 | 0.00 | ||
| 20260904225600 | 21 | 322 | 12.9 | 20.9 | 0.00 | 0.00 | 0.00 | ||
| 20260904225156 | 22 | 313 | 12.9 | 29.0 | 0.00 | 0.00 | 0.00 | ||
| 20260904224749 | 22 | 317 | 11.3 | 19.3 | 0.00 | 0.00 | 0.00 | ||
| 20260904224347 | 22 | 311 | 9.7 | 19.3 | 0.00 | 0.00 | 0.00 | ||
| 20260904223946 | 23 | 319 | 14.5 | 32.2 | 0.00 | 0.00 | 0.00 | ||
| 20260904223544 | 24 | 311 | 12.9 | 20.9 | 0.00 | 0.00 | 0.00 | ||
| 20260904223142 | 25 | 298 | 19.3 | 30.6 | 0.00 | 0.00 | 0.00 | ||
| 20260904222741 | 25 | 286 | 22.5 | 29.0 | 0.00 | 0.00 | 0.00 | ||
| 20260904222339 | 26 | 236 | 16.1 | 22.5 | 0.00 | 0.00 | 0.00 | ||
| 20260904221937 | 26 | 241 | 14.5 | 20.9 | 0.00 | 0.00 | 0.00 | ||
| 20260904221536 | 26 | 225 | 17.7 | 32.2 | 0.00 | 0.00 | 0.00 | ||
| 20260904221134 | 26 | 224 | 14.5 | 29.0 | 0.00 | 0.00 | 0.00 | ||
| 20260904220726 | 26 | 230 | 14.5 | 24.1 | 0.00 | 0.00 | 0.00 | ||
| 20260904220324 | 26 | 231 | 17.7 | 32.2 | 0.00 | 0.00 | 0.00 | ||
| 20260904215922 | 26 | 240 | 16.1 | 25.7 | 0.00 | 0.00 | 0.00 | ||
| 20260904215521 | 26 | 228 | 17.7 | 29.0 | 0.00 | 0.00 | 0.00 | ||
| 20260904215119 | 26 | 226 | 17.7 | 24.1 | 0.00 | 0.00 | 0.00 | ||
| 20260904214718 | 26 | 219 | 12.9 | 24.1 | 0.00 | 0.00 | 0.00 | ||
| 20260904214315 | 26 | 221 | 11.3 | 17.7 | 0.00 | 0.00 | 0.00 | ||
| 20260904213914 | 26 | 225 | 11.3 | 17.7 | 0.00 | 0.00 | 0.00 | ||
| 20260904213513 | 26 | 218 | 12.9 | 24.1 | 0.00 | 0.00 | 0.00 | ||
| 20260904213111 | 26 | 223 | 12.9 | 19.3 | 0.00 | 0.00 | 0.00 | ||
| 20260904212702 | 26 | 229 | 16.1 | 27.4 | 0.00 | 0.00 | 0.00 | ||
| 20260904212300 | 26 | 235 | 16.1 | 33.8 | 0.00 | 0.00 | 0.00 | ||
| 20260904211859 | 26 | 235 | 14.5 | 17.7 | 0.00 | 0.00 | 0.00 | ||
| 20260904211458 | 26 | 220 | 14.5 | 27.4 | 0.00 | 0.00 | 0.00 | ||
| 20260904211054 | 26 | 222 | 11.3 | 19.3 | 0.00 | 0.00 | 0.00 | ||
| 20260904210653 | 26 | 207 | 9.7 | 25.7 | 0.00 | 0.00 | 0.00 | ||
| 20260904210251 | 26 | 207 | 12.9 | 22.5 | 0.00 | 0.00 | 0.00 | ||
| 20260904205850 | 26 | 200 | 16.1 | 29.0 | 0.00 | 0.00 | 0.00 | ||
| 20260904205449 | 26 | 202 | 12.9 | 19.3 | 0.00 | 0.00 | 0.00 | ||
| 20260904205046 | 26 | 206 | 14.5 | 24.1 | 0.00 | 0.00 | 0.00 | ||
| 20260904204638 | 26 | 205 | 17.7 | 30.6 | 0.00 | 0.00 | 0.00 | ||
| 20260904204236 | 26 | 212 | 17.7 | 22.5 | 0.00 | 0.00 | 0.00 | ||
| 20260904203835 | 26 | 210 | 16.1 | 25.7 | 0.00 | 0.00 | 0.00 | ||
| 20260904203433 | 26 | 209 | 22.5 | 35.4 | 0.00 | 0.00 | 0.00 | ||
| 20260904203031 | 26 | 204 | 20.9 | 38.6 | 0.00 | 0.00 | 0.00 | ||
| 20260904202630 | 26 | 206 | 19.3 | 33.8 | 0.00 | 0.00 | 0.00 | ||
| 20260904202228 | 26 | 200 | 19.3 | 37.0 | 0.00 | 0.00 | 0.00 | ||
| 20260904201826 | 26 | 206 | 20.9 | 33.8 | 0.00 | 0.00 | 0.00 | ||
| 20260904201425 | 26 | 213 | 19.3 | 35.4 | 0.00 | 0.00 | 0.00 | ||
| 20260904201023 | 26 | 205 | 17.7 | 25.7 | 0.00 | 0.00 | 0.00 | ||
| 20260904200615 | 26 | 205 | 14.5 | 24.1 | 0.00 | 0.00 | 0.00 | ||
| 20260904200212 | 25 | 199 | 16.1 | 22.5 | 0.00 | 0.00 | 0.00 | ||
| 20260904195811 | 25 | 201 | 16.1 | 30.6 | 0.00 | 0.00 | 0.00 | ||
| 20260904195410 | 26 | 201 | 20.9 | 32.2 | 0.00 | 0.00 | 0.00 | ||
| 20260904195008 | 25 | 199 | 14.5 | 27.4 | 0.00 | 0.00 | 0.00 | ||
| 20260904194607 | 25 | 201 | 16.1 | 24.1 | 0.00 | 0.00 | 0.00 | ||
| 20260904194204 | 25 | 207 | 16.1 | 24.1 | 0.00 | 0.00 | 0.00 | ||
| 20260904193803 | 25 | 211 | 11.3 | 20.9 | 0.00 | 0.00 | 0.00 | ||
| 20260904193402 | 25 | 207 | 14.5 | 27.4 | 0.00 | 0.00 | 0.00 | ||
| 20260904193000 | 25 | 199 | 11.3 | 16.1 | 0.00 | 0.00 | 0.00 | ||
| 20260904192551 | 24 | 178 | 8.0 | 12.9 | 0.00 | 0.00 | 0.00 | ||
| 20260904192149 | 24 | 160 | 6.4 | 12.9 | 0.00 | 0.00 | 0.00 | ||
| 20260904191748 | 24 | 164 | 6.4 | 12.9 | 0.00 | 0.00 | 0.00 | ||
| 20260904191347 | 24 | 161 | 6.4 | 9.7 | 0.00 | 0.00 | 0.00 | ||
| 20260904190944 | 23 | 151 | 4.8 | 12.9 | 0.00 | 0.00 | 0.00 | ||
| 20260904190543 | 24 | 156 | 6.4 | 11.3 | 0.00 | 0.00 | 0.00 | ||
| 20260904190142 | 24 | 153 | 8.0 | 11.3 | 0.00 | 0.00 | 0.00 | ||
| 20260904185741 | 25 | 174 | 3.2 | 8.0 | 0.00 | 0.00 | 0.00 | ||
| 20260904185338 | 25 | 185 | 6.4 | 9.7 | 0.00 | 0.00 | 0.00 | ||
| 20260904184937 | 25 | 188 | 4.8 | 12.9 | 0.00 | 0.00 | 0.00 | ||
| 20260904184529 | 25 | 180 | 4.8 | 6.4 | 0.00 | 0.00 | 0.00 | ||
| 20260904184127 | 25 | 180 | 1.6 | 6.4 | 0.00 | 0.00 | 0.00 | ||
| 20260904183726 | 25 | 180 | 4.8 | 9.7 | 0.00 | 0.00 | 0.00 | ||
| 20260904183324 | 25 | 180 | 6.4 | 9.7 | 0.00 | 0.00 | 0.00 | ||
| 20260904182921 | 25 | 189 | 6.4 | 9.7 | 0.00 | 0.00 | 0.00 | ||
| 20260904182520 | 25 | 199 | 8.0 | 9.7 | 0.00 | 0.00 | 0.00 | ||
| 20260904182119 | 25 | 192 | 4.8 | 8.0 | 0.00 | 0.00 | 0.00 | ||
| 20260904181716 | 25 | 195 | 9.7 | 19.3 | 0.00 | 0.00 | 0.00 | ||
| 20260904181315 | 25 | 202 | 4.8 | 8.0 | 0.00 | 0.00 | 0.00 | ||
| 20260904180914 | 25 | 188 | 6.4 | 12.9 | 0.00 | 0.00 | 0.00 | ||
| 20260904180506 | 25 | 201 | 9.7 | 12.9 | 0.00 | 0.00 | 0.00 | ||
| 20260904175702 | 25 | 195 | 9.7 | 12.9 | 0.00 | 0.00 | 0.00 | ||
| 20260904175301 | 25 | 189 | 11.3 | 16.1 | 0.00 | 0.00 | 0.00 | ||
| 20260904174859 | 25 | 185 | 12.9 | 16.1 | 0.00 | 0.00 | 0.00 | ||
| 20260904174457 | 26 | 192 | 11.3 | 16.1 | 0.00 | 0.00 | 0.00 | ||
| 20260904174055 | 26 | 186 | 12.9 | 19.3 | 0.00 | 0.00 | 0.00 | ||
| 20260904173654 | 26 | 185 | 12.9 | 19.3 | 0.00 | 0.00 | 0.00 | ||
| 20260904173252 | 26 | 200 | 12.9 | 19.3 | 0.00 | 0.00 | 0.00 | ||
| 20260904172850 | 26 | 172 | 11.3 | 14.5 | 0.00 | 0.00 | 0.00 | ||
| 20260904172441 | 26 | 185 | 11.3 | 14.5 | 0.00 | 0.00 | 0.00 | ||
| 20260904172039 | 26 | 183 | 12.9 | 16.1 | 0.00 | 0.00 | 0.00 | ||
| 20260904171238 | 26 | 202 | 9.7 | 16.1 | 0.00 | 0.00 | 0.00 | ||
| 20260904170834 | 26 | 202 | 14.5 | 17.7 | 0.00 | 0.00 | 0.00 | ||
| 20260904170434 | 26 | 194 | 16.1 | 27.4 | 0.00 | 0.00 | 0.00 | ||
| 20260904170032 | 26 | 209 | 9.7 | 14.5 | 0.00 | 0.00 | 0.00 | ||
| 20260904165631 | 26 | 205 | 11.3 | 17.7 | 0.00 | 0.00 | 0.00 | ||
| 20260904165229 | 26 | 208 | 11.3 | 17.7 | 0.00 | 0.00 | 0.00 | ||
| 20260904164827 | 26 | 205 | 11.3 | 17.7 | 0.00 | 0.00 | 0.00 | ||
| 20260904164419 | 26 | 215 | 11.3 | 19.3 | 0.00 | 0.00 | 0.00 | ||
| 20260904164017 | 27 | 203 | 9.7 | 16.1 | 0.00 | 0.00 | 0.00 | ||
| 20260904163615 | 27 | 206 | 12.9 | 19.3 | 0.00 | 0.00 | 0.00 | ||
| 20260904163214 | 27 | 217 | 14.5 | 25.7 | 0.00 | 0.00 | 0.00 | ||
| 20260904162812 | 27 | 212 | 16.1 | 22.5 | 0.00 | 0.00 | 0.00 | ||
| 20260904162411 | 27 | 200 | 17.7 | 32.2 | 0.00 | 0.00 | 0.00 | ||
| 20260904162009 | 28 | 205 | 14.5 | 20.9 | 0.00 | 0.00 | 0.00 | ||
| 20260904161607 | 27 | 196 | 16.1 | 29.0 | 0.00 | 0.00 | 0.00 | ||
| 20260904161206 | 27 | 195 | 12.9 | 19.3 | 0.00 | 0.00 | 0.00 | ||
| 20260904160804 | 26 | 212 | 12.9 | 24.1 | 0.00 | 0.00 | 0.00 | ||
| 20260904160356 | 26 | 197 | 12.9 | 20.9 | 0.00 | 0.00 | 0.00 | ||
| 20260904155953 | 26 | 213 | 12.9 | 22.5 | 0.00 | 0.00 | 0.00 | ||
| 20260904155552 | 26 | 197 | 9.7 | 14.5 | 0.00 | 0.00 | 0.00 | ||
| 20260904155151 | 26 | 202 | 16.1 | 25.7 | 0.00 | 0.00 | 0.00 | ||
| 20260904154750 | 26 | 201 | 12.9 | 17.7 | 0.00 | 0.00 | 0.00 | ||
| 20260904154347 | 26 | 203 | 9.7 | 16.1 | 0.00 | 0.00 | 0.00 | ||
| 20260904153945 | 26 | 206 | 11.3 | 16.1 | 0.00 | 0.00 | 0.00 | ||
| 20260904153544 | 26 | 210 | 12.9 | 19.3 | 0.00 | 0.00 | 0.00 | ||
| 20260904153143 | 26 | 224 | 12.9 | 20.9 | 0.00 | 0.00 | 0.00 | ||
| 20260904152740 | 26 | 207 | 12.9 | 25.7 | 0.00 | 0.00 | 0.00 | ||
| 20260904152332 | 26 | 214 | 11.3 | 17.7 | 0.00 | 0.00 | 0.00 | ||
| 20260904151930 | 26 | 208 | 14.5 | 22.5 | 0.00 | 0.00 | 0.00 | ||
| 20260904151530 | 26 | 221 | 12.9 | 22.5 | 0.00 | 0.00 | 0.00 | ||
| 20260904151128 | 26 | 227 | 11.3 | 16.1 | 0.00 | 0.00 | 0.00 | ||
| 20260904150725 | 26 | 225 | 16.1 | 22.5 | 0.00 | 0.00 | 0.00 | ||
| 20260904150325 | 26 | 214 | 16.1 | 32.2 | 0.00 | 0.00 | 0.00 | ||
| 20260904145923 | 26 | 216 | 17.7 | 27.4 | 0.00 | 0.00 | 0.00 | ||
| 20260904145521 | 26 | 216 | 14.5 | 24.1 | 0.00 | 0.00 | 0.00 | ||
| 20260904145119 | 26 | 213 | 14.5 | 22.5 | 0.00 | 0.00 | 0.00 | ||
| 20260904144716 | 26 | 224 | 16.1 | 22.5 | 0.00 | 0.00 | 0.00 | ||
| 20260904144308 | 26 | 230 | 17.7 | 30.6 | 0.00 | 0.00 | 0.00 | ||
| 20260904143907 | 26 | 225 | 17.7 | 30.6 | 0.00 | 0.00 | 0.00 | ||
| 20260904143504 | 26 | 205 | 20.9 | 29.0 | 0.00 | 0.00 | 0.00 | ||
| 20260904143103 | 26 | 231 | 17.7 | 29.0 | 0.00 | 0.00 | 0.00 | ||
| 20260904142701 | 26 | 225 | 17.7 | 25.7 | 0.00 | 0.00 | 0.00 | ||
| 20260904142300 | 27 | 208 | 19.3 | 30.6 | 0.00 | 0.00 | 0.00 | ||
| 20260904141857 | 27 | 207 | 14.5 | 22.5 | 0.00 | 0.00 | 0.00 | ||
| 20260904141456 | 26 | 217 | 12.9 | 24.1 | 0.00 | 0.00 | 0.00 | ||
| 20260904141055 | 26 | 204 | 20.9 | 38.6 | 0.00 | 0.00 | 0.00 | ||
| 20260904140653 | 26 | 222 | 19.3 | 30.6 | 0.00 | 0.00 | 0.00 | ||
| 20260904140245 | 26 | 215 | 22.5 | 35.4 | 0.00 | 0.00 | 0.00 | ||
| 20260904135842 | 26 | 210 | 16.1 | 22.5 | 0.00 | 0.00 | 0.00 | ||
| 20260904135441 | 26 | 206 | 17.7 | 27.4 | 0.00 | 0.00 | 0.00 | ||
| 20260904135040 | 26 | 224 | 14.5 | 25.7 | 0.00 | 0.00 | 0.00 | ||
| 20260904134638 | 26 | 232 | 14.5 | 22.5 | 0.00 | 0.00 | 0.00 | ||
| 20260904134236 | 26 | 232 | 14.5 | 22.5 | 0.00 | 0.00 | 0.00 | ||
| 20260904133834 | 26 | 225 | 17.7 | 41.8 | 0.00 | 0.00 | 0.00 | ||
| 20260904133433 | 26 | 229 | 17.7 | 27.4 | 0.00 | 0.00 | 0.00 | ||
| 20260904133033 | 26 | 226 | 22.5 | 30.6 | 0.00 | 0.00 | 0.00 | ||
| 20260904132629 | 26 | 223 | 19.3 | 27.4 | 0.00 | 0.00 | 0.00 | ||
| 20260904132221 | 26 | 207 | 19.3 | 38.6 | 0.00 | 0.00 | 0.00 | ||
| 20260904131820 | 25 | 214 | 20.9 | 38.6 | 0.00 | 0.00 | 0.00 | ||
| 20260904131419 | 25 | 215 | 16.1 | 29.0 | 0.00 | 0.00 | 0.00 | ||
| 20260904131017 | 25 | 205 | 17.7 | 29.0 | 0.00 | 0.00 | 0.00 | ||
| 20260904130614 | 26 | 212 | 19.3 | 32.2 | 0.00 | 0.00 | 0.00 |